Regional Weather Roundup
Issued by NWS Midland/Odessa, TX

Home | Current Version | Previous Version | Text Only | Print | Product List | Glossary On
Versions: 1 2 3 4 5 6 7 8 9 10 11 12 13 14 15 16 17 18 19 20 21 22 23 24 25 26 27 28 29 30 31 32 33 34 35 36 37 38 39 40 41 42 43 44 45 46 47 48 49 50
000
ASUS44 KMAF 251310
RWRMAF
MIDLAND AREA WEATHER ROUNDUP
NATIONAL WEATHER SERVICE MIDLAND TX
800 AM CDT SUN SEP 25 2016

...IN SOUTHWEST TEXAS AND SOUTHEAST NEW MEXICO...

CITY           SKY/WX    TMP DP  RH WIND       PRES   REMARKS
ALPINE         CLOUDY    59  56  88 CALM      30.18R
ANDREWS        FAIR      64  64 100 N3        30.09R
ARTESIA        MOCLDY    61  39  44 MISG      30.13R
BIG SPRING     CLOUDY    66  62  89 N5        30.07F
CARLSBAD       CLOUDY    61  40  45 N12       30.10R
DRYDEN           N/A     68  67  96 NE6       29.99R
FORT STOCKTON  CLOUDY    65  63  93 E6        30.04R
GUAD PASS      CLOUDY    61  32  33 E14       30.17R
HOBBS          MOCLDY    63  63 100 NE6       30.13R
MARFA          LGT RAIN N/A N/A N/A MISG      30.15S
MIDLAND AIRPK  CLOUDY    67  63  85 E6        30.07S
MIDLAND INTL   MOCLDY    66  62  87 NE6       30.06S
ODESSA         CLOUDY    66  61  84 E8        30.07S
PECOS          CLOUDY    67  61  81 N5        30.05R
PRESIDIO       HVY RAIN  64  63  95 CALM      30.06
SEMINOLE       LGT RAIN N/A N/A N/A CALM      30.11S
SNYDER           N/A     66  65  96 CALM      30.07F
WINK           CLOUDY    67  62  84 E6        30.04R
$$
...OTHER STATIONS IN TEXAS...

CITY           SKY/WX    TMP DP  RH WIND       PRES   REMARKS
ABILENE        LGT RAIN  66  65  96 S7        30.07R
AMARILLO       CLOUDY    57  56  96 N23G33    30.21R
AUSTIN         CLOUDY    76  74  93 S5        29.97R
BROWNSVILLE    PTCLDY    81  76  84 SE6       29.91S
CORPUS CHRISTI CLOUDY    79  75  87 SE8       29.93R THUNDER
DALLAS FTW     CLOUDY    75  69  81 NE9       30.00S
DEL RIO        LGT RAIN  71  70  96 W13       29.92R FOG
EL PASO        CLOUDY    66  30  26 N12       30.10R
HOUSTON INT    MOCLDY    77  75  93 NE5       29.98S
LUBBOCK        CLOUDY    65  64  97 SE3       30.12R FOG
SAN ANGELO     LGT RAIN  68  65  90 E13       30.04R FOG
SAN ANTONIO    CLOUDY    77  74  90 E8        29.98R
WACO           MOCLDY    75  74  96 SE6       29.99S
WICHITA FALLS  NOT AVBL
$$
...OTHER LOCATIONS IN NEW MEXICO...

CITY           SKY/WX    TMP DP  RH WIND       PRES   REMARKS
ALAMAGORDO     CLOUDY    57  32  38 N3        30.13R
ALBUQUERQUE    PTCLDY    51  35  54 NW7       30.30R
CANNON AFB     CLEAR     55  42  62 NE21G26   30.20R
CLOVIS         PTCLDY    54  45  71 N17G25    30.21R
HOLLOMAN AFB   CLOUDY    61  33  34 NE7       30.11R
ROSWELL        PTCLDY    60  36  40 NW10      30.15R
RUIDOSO        CLOUDY    50  28  43 NW6       30.31
SANTA FE       CLEAR     46  30  53 N14       30.34R WCI  40
TRUTH OR CONSE CLEAR     53  31  42 NW5       30.20R
TUCUMCARI      CLOUDY    58  39  49 NE25G32   30.26R
$$




USA.gov is the U.S. government's official web portal to all federal, state and local government web resources and services.